This demonstration page uses our WeatherBlox Daily Observations layout. Learn more.

Left ArrowRight Arrow

Hourly Observations for November 25, 2016

Temp ( °F °C ) Dew Point ( °F °C ) Humidity (%) Winds ( mph kmh ) Pressure ( in mb ) Visibility ( mi km ) Precip ( " mm )
12:15 am 00:15 Clear 30 -1.1 28 -2.1 93 93 W 7 11 30.48 1032 10 16 N/A
12:35 am 00:35 Clear 30 -1.2 28 -2.2 93 93 W 8 13 30.48 1032 10 16 N/A
12:55 am 00:55 Clear 31 -0.5 29 -1.6 92 92 W 12 19 30.48 1032 10 16 N/A
1:15 am 01:15 Clear 32 -0.1 30 -1.3 92 92 W 9 15 30.45 1031 10 16 N/A
1:35 am 01:35 Clear 32 undefined 29 -1.4 90 90 W 10 17 30.45 1031 10 16 N/A
1:55 am 01:55 Clear 31 -0.5 29 -1.8 91 91 W 9 15 30.48 1032 10 16 N/A
2:15 am 02:15 Clear 31 -0.5 29 -1.8 91 91 W 6 9 30.48 1032 10 16 N/A
2:35 am 02:35 Clear 30 -1.2 28 -2.5 91 91 W 7 11 30.48 1032 10 16 N/A
2:55 am 02:55 Clear 29 -1.5 27 -2.7 92 92 W 8 13 30.48 1032 10 16 N/A
3:15 am 03:15 Clear 31 -0.6 28 -2.4 88 88 W 5 7 30.48 1032 10 16 N/A
3:35 am 03:35 Clear 31 -0.8 27 -2.7 87 87 W 7 11 30.48 1032 10 16 N/A
3:55 am 03:55 Clear 30 -1.2 27 -3 88 88 W 6 9 30.48 1032 10 16 N/A
4:15 am 04:15 Clear 29 -1.5 26 -3.3 88 88 W 7 11 30.48 1032 10 16 N/A
4:35 am 04:35 Clear 29 -1.5 26 -3.4 87 87 WNW 5 7 30.48 1032 10 16 N/A
4:55 am 04:55 Clear 28 -2.1 25 -3.8 88 88 W 5 7 30.48 1032 10 16 N/A
5:15 am 05:15 Clear 28 -2.2 25 -4 88 88 W 5 7 30.48 1032 10 16 N/A
5:35 am 05:35 Clear 28 -2.5 25 -4.1 89 89 W 6 9 30.48 1032 10 16 N/A
5:55 am 05:55 Clear 28 -2.1 25 -3.8 88 88 W 3 6 30.50 1033 10 16 N/A
6:15 am 06:15 Clear 28 -2 25 -3.8 88 88 W 5 7 30.50 1033 10 16 N/A
6:35 am 06:35 Clear 26 -3.1 23 -4.9 88 88 W 5 7 30.50 1033 10 16 N/A
6:55 am 06:55 Clear 25 -3.8 23 -5 91 91 N N/A 30.53 1034 10 16 N/A
7:15 am 07:15 Clear 25 -4.1 22 -5.4 91 91 W 7 11 30.53 1034 10 16 N/A
7:35 am 07:35 Clear 25 -4 22 -5.3 91 91 W 7 11 30.53 1034 10 16 N/A
7:55 am 07:55 Sunny 26 -3.5 23 -5.1 89 89 W 5 7 30.53 1034 10 16 N/A
8:15 am 08:15 Sunny 27 -2.6 24 -4.7 86 86 W 8 13 30.50 1033 10 16 N/A
8:35 am 08:35 Sunny 29 -1.5 24 -4.2 82 82 W 7 11 30.50 1033 10 16 N/A
8:55 am 08:55 Sunny 31 -0.8 25 -3.7 81 81 W 6 9 30.50 1033 10 16 N/A
9:15 am 09:15 Sunny 32 0.1 27 -2.9 80 80 W 6 9 30.48 1032 10 16 N/A
9:35 am 09:35 Sunny 34 1.1 27 -2.6 77 77 WNW 5 7 30.50 1033 10 16 N/A
9:55 am 09:55 Sunny 36 2.3 28 -2.5 71 71 W 6 9 30.50 1033 10 16 N/A
10:15 am 10:15 Sunny 38 3.6 30 -1.2 71 71 W 6 9 30.48 1032 10 16 N/A
10:35 am 10:35 Sunny 40 4.7 30 -1.3 65 65 WSW 7 11 30.48 1032 10 16 N/A
10:55 am 10:55 Sunny 41 5 30 -0.9 66 66 W 6 9 30.45 1031 10 16 N/A
11:15 am 11:15 Sunny 43 6.1 31 -0.8 62 62 WSW 7 11 30.45 1031 10 16 N/A
11:35 am 11:35 Sunny 45 7.1 31 -0.6 58 58 WSW 8 13 30.42 1030 10 16 N/A
11:55 am 11:55 Sunny 46 8 29 -1.4 52 52 WSW 7 11 30.39 1029 10 16 N/A
12:15 pm 12:15 Sunny 49 9.2 29 -1.9 46 46 WSW 8 13 30.36 1028 10 16 N/A
12:35 pm 12:35 Sunny 50 10.1 29 -1.9 43 43 SW 13 20 30.36 1028 10 16 N/A
12:55 pm 12:55 Sunny 50 10.1 29 -1.6 44 44 SW 10 17 30.33 1027 10 16 N/A
1:15 pm 13:15 Sunny 50 10.2 29 -1.6 44 44 SW 13 20 30.33 1027 10 16 N/A
1:35 pm 13:35 Sunny 51 10.6 28 -2.1 41 41 SSW 13 20 30.33 1027 10 16 N/A
1:55 pm 13:55 Sunny 52 11 28 -2.4 39 39 SW 13 20 30.30 1026 10 16 N/A
2:15 pm 14:15 Sunny 53 11.5 28 -2 39 39 SW 13 20 30.30 1026 10 16 N/A
2:35 pm 14:35 Sunny 54 12 25 -4.1 32 32 SSW 13 20 30.27 1025 10 16 N/A
2:55 pm 14:55 Sunny 54 12.2 25 -3.8 33 33 SW 12 19 30.27 1025 10 16 N/A
3:15 pm 15:15 Sunny 55 12.5 25 -3.9 32 32 SSW 16 26 30.24 1024 10 16 N/A
3:35 pm 15:35 Sunny 55 12.5 24 -4.5 31 31 SSW 15 24 30.24 1024 10 16 N/A
3:55 pm 15:55 Sunny 54 12.3 24 -4.3 31 31 SSW 12 19 30.24 1024 10 16 N/A
4:15 pm 16:15 Sunny 54 12 24 -4.5 32 32 SSW 13 20 30.24 1024 10 16 N/A
4:35 pm 16:35 Sunny 52 11.3 24 -4.5 33 33 SSW 9 15 30.27 1025 10 16 N/A
4:55 pm 16:55 Sunny 51 10.5 23 -4.8 34 34 SSW 10 17 30.27 1025 10 16 N/A
5:15 pm 17:15 Clear 48 9.1 24 -4.7 38 38 S 10 17 30.27 1025 10 16 N/A
5:35 pm 17:35 Clear 47 8.3 23 -4.8 39 39 SSW 10 17 30.27 1025 10 16 N/A
5:55 pm 17:55 Clear 45 7.4 24 -4.6 43 43 SSW 9 15 30.30 1026 10 16 N/A
6:15 pm 18:15 Clear 44 6.7 24 -4.6 45 45 SSW 9 15 30.30 1026 10 16 N/A
6:35 pm 18:35 Clear 44 6.5 23 -5 44 44 S 12 19 30.30 1026 10 16 N/A
6:55 pm 18:55 Clear 43 6.2 23 -4.8 46 46 S 10 17 30.27 1025 10 16 N/A
7:15 pm 19:15 Clear 42 5.8 24 -4.6 48 48 S 10 17 30.27 1025 10 16 N/A
7:35 pm 19:35 Clear 42 5.7 24 -4.6 48 48 S 13 20 30.27 1025 10 16 N/A
7:55 pm 19:55 Clear 42 5.3 24 -4.6 49 49 SSW 13 20 30.27 1025 10 16 N/A
8:15 pm 20:15 Clear 41 5 24 -4.6 50 50 S 13 20 30.27 1025 10 16 N/A
8:35 pm 20:35 Clear 40 4.7 24 -4.7 51 51 S 10 17 30.30 1026 10 16 N/A
8:55 pm 20:55 Clear 40 4.5 23 -5 50 50 S 13 20 30.30 1026 10 16 N/A
9:15 pm 21:15 Clear 39 4.1 23 -4.8 53 53 SSW 12 19 30.30 1026 10 16 N/A
9:35 pm 21:35 Clear 38 3.3 23 -4.8 56 56 SSW 10 17 30.30 1026 10 16 N/A
9:55 pm 21:55 Clear 37 3 23 -4.8 57 57 SSW 8 13 30.30 1026 10 16 N/A
10:15 pm 22:15 Clear 37 3 23 -5.1 56 56 SSW 8 13 30.30 1026 10 16 N/A
10:35 pm 22:35 Clear 37 2.5 23 -5.2 57 57 SW 8 13 30.30 1026 10 16 N/A
10:55 pm 22:55 Clear 36 2.2 22 -5.4 58 58 SW 7 11 30.30 1026 10 16 N/A
11:15 pm 23:15 Clear 35 1.8 23 -5.1 61 61 SSW 8 13 30.30 1026 10 16 N/A
11:35 pm 23:35 Clear 37 2.5 22 -5.5 56 56 SSW 8 13 30.27 1025 10 16 N/A
11:55 pm 23:55 Clear 37 2.8 22 -5.6 54 54 SSW 12 19 30.27 1025 10 16 N/A

Powered by AerisWeather